Regional Weather Roundup
Issued by NWS

Home | Current Version | Previous Version | Text Only | Print | Product List | Glossary Off
Versions: 1 2 3 4 5 6 7 8 9 10 11 12 13 14 15 16 17 18 19 20 21 22 23 24 25 26 27 28 29 30 31 32 33 34 35 36 37 38 39 40 41 42 43 44 45 46 47 48 49 50

000
ASUS43 KLSX 102207
RWRMO

WEATHER SUMMARY FOR MISSOURI
NATIONAL WEATHER SERVICE SPRINGFIELD MO
400 PM CST SAT DEC 10 2016

NOTE: "FAIR" INDICATES FEW OR NO CLOUDS BELOW 12,000 FEET WITH NO
       SIGNIFICANT WEATHER AND/OR OBSTRUCTIONS TO VISIBILITY.
       CURRENT SKY AND/OR WEATHER CONDITIONS ARE NOT AVAILABLE FOR
       CHILLICOTHE AND FARMINGTON.

MOZ001>031-035>038-043-044-053-054-102300-
...NORTHERN AND WESTERN MISSOURI...

CITY           SKY/WX    TMP DP  RH WIND       PRES   REMARKS
KANSAS CTY INT CLOUDY    35  22  58 SE14      30.15S WCI  26
KANSAS C DTWN  CLOUDY    37  24  59 E8        30.16F
LEE`S SUMMIT   CLOUDY    36  20  52 SE9       30.17F WCI  29
ST JOSEPH      CLOUDY    34  18  52 SE15      30.16F WCI  24
CHILLICOTHE      N/A     32  17  54 SE8       30.23F WCI  25
KIRKSVILLE     CLOUDY    30  16  56 SE13      30.25F WCI  20

$$
MOZ066>068-077>081-088>096-101>105-102300-
...SOUTHWEST MISSOURI...

CITY           SKY/WX    TMP DP  RH WIND       PRES   REMARKS
SPRINGFIELD    CLOUDY    38  20  48 SE16      30.23S WCI  29
JOPLIN         CLOUDY    45   8  22 S14       30.18F
BRANSON        CLOUDY    39  18  41 SE12      30.27S

$$
MOZ032>034-039>042-045>050-055>058-069>072-102300-
...CENTRAL MISSOURI...

CITY           SKY/WX    TMP DP  RH WIND       PRES   REMARKS
COLUMBIA       CLOUDY    34  17  50 SE12      30.25F WCI  25
JEFFERSON CITY CLOUDY    37  17  44 SE9       30.28F
ROLLA          CLOUDY    33  17  51 SE14      30.28F WCI  23
SEDALIA        CLOUDY    39  17  41 SE14      30.23F
WHITEMAN AFB   CLOUDY    38  17  43 S9        30.18F
WARRENSBURG    CLOUDY    36  18  48 SE10      30.18F WCI  28
OSAGE BEACH    CLOUDY    37  17  44 SE9G17    30.27F

$$
MOZ051-052-059>065-102300-
...EAST CENTRAL MISSOURI...

CITY           SKY/WX    TMP DP  RH WIND       PRES   REMARKS
ST LOUIS INTL  CLOUDY    34  17  50 SE13      30.37F WCI  25
SPIRIT OF STL  CLOUDY    34  17  50 SE3       30.36F
ST CHARLES     CLOUDY    34  19  54 SE12      30.36F WCI  25

$$
MOZ072>076-082>087-097>100-106>115-102300-
...SOUTH CENTRAL AND SOUTHEAST MISSOURI...

CITY           SKY/WX    TMP DP  RH WIND       PRES   REMARKS
CAPE GIRARDEAU CLOUDY    36  19  50 S9        30.42F WCI  29
FARMINGTON     CLOUDY    34  19  54 SE9       30.38S WCI  27
POPLAR BLUFF   CLOUDY    36  21  54 S7        30.42F
WEST PLAINS    CLOUDY    33  18  53 E9        30.34F WCI  25

$$


USA.gov is the U.S. government's official web portal to all federal, state and local government web resources and services.